Location: Monrovia
(34.7865°N, 86.7139°W)
Time: 00:14:09
(UTC+00:00)

USA 238 - Pass Details

Date: 14 July 2020
Orbit: 1009 x 1203 km, 63.4° (Epoch: 08 August)

Event Time Altitude Azimuth Distance (km) Brightness Sun altitude
Exits shadow 08:20:52 28° 163° (SSE) 1,794 4.6 -23.6°
Maximum altitude 08:23:41 43° 113° (ESE) 1,410 4.4 -23.2°
Drops below altitude 10° 08:29:57 10° 45° (NE) 2,868 7.1 -22.4°
Sets 08:32:46 0° 39° (NE) 3,852 8.2 -22.0°
